sat.trackr.live / text

‹ back to catalog

STARLINK-5835

NORAD 55772 · 2023-028AH

PAYLOAD ACTIVE UNKNOWN

§ Identity

Operator
Country
US
Launch date
2023-03-03
Launch site
AFWTR
Launch vehicle
Mass (kg)
RCS (m²)

Purposes: comms

External: N2YO · Heavens-Above · Gunter

§ Orbital elements

Epoch: 2026-05-25T02:43:55.107264Z

Period
96.11 min
Inclination
70.0000°
Eccentricity
0.0002789
Mean motion
14.98330613 rev/d
Perigee alt
570.1 km
Apogee alt
574.0 km
Semi-major
6,950.2 km
B*
6.5504e-5
RAAN
31.6494°
Arg perigee
268.8953°
Mean anomaly
91.1887°
Rev number
17,798

§ Raw data

STARLINK-58351 55772U 23028AH  26145.11383226  .00000689  00000+0  65504-4 0  99912 55772  70.0000  31.6494 0002789 268.8953  91.1887 14.98330613177983

JSON: /api/v1/satellites/55772 · /tle

For live sub-satellite position, see the globe view (requires WebGL).

§ Visibility from observer

Set your observer location to see the next 7 days of passes ≥ 10°. The values pass through the URL so the page stays shareable.

No JS? Fill the form by hand. The geolocation button needs JavaScript.